period_start,C,m1,H,J0,J1,J2,J3,J4,J5,JA,JB,JC,JD,JJ,JK,JN,#
2018-01-21 00:02:13,0.07,1.87,0.00,26.66,27.65,30.72,13.87,47.69,1035.66,2025.00,2668.32,2582.03,2892.06,599.88,599.66,25.78,0000 0000 0000 0000 000000
2018-01-21 00:07:14,0.00,1.87,0.00,26.65,27.67,30.75,13.94,47.63,1035.66,2025.00,2667.93,2581.96,2891.89,600.07,599.91,25.83,0000 0000 0000 0000 000000
2018-01-21 00:12:15,0.06,1.87,0.00,26.69,27.67,30.77,13.88,47.63,1035.66,2025.00,2667.15,2581.50,2891.15,599.76,599.59,25.89,0000 0000 0000 0000 000000
2018-01-21 00:17:16,0.02,1.87,0.00,26.70,27.68,30.78,13.93,47.65,1035.66,2024.98,2666.33,2581.02,2890.98,599.90,599.60,25.94,0000 0000 0000 0000 000000
2018-01-21 00:22:18,0.02,1.87,0.00,26.66,27.70,30.78,13.90,47.76,1035.66,2024.99,2665.83,2580.93,2890.36,599.85,599.67,25.99,0000 0000 0000 0000 000000
2018-01-21 00:27:19,0.08,1.88,0.00,26.70,27.70,30.80,13.93,47.66,1035.66,2024.98,2664.37,2580.09,2889.35,599.88,599.70,26.04,0000 0000 0000 0000 000000
2018-01-21 00:32:20,0.02,1.88,0.00,26.67,27.72,30.82,13.91,47.74,1035.65,2024.95,2663.63,2579.86,2888.99,599.91,599.61,26.09,0000 0000 0000 0000 000000
2018-01-21 00:37:21,0.04,1.88,0.00,26.70,27.72,30.81,13.83,47.63,1035.65,2024.90,2663.00,2579.20,2888.57,599.95,599.67,26.14,0000 0000 0000 0000 000000
2018-01-21 00:42:23,0.02,1.88,0.00,26.66,27.73,30.80,13.91,47.69,1035.66,2024.84,2662.35,2579.02,2888.02,600.01,599.87,26.19,0000 0000 0000 0000 000000
2018-01-21 00:47:24,-0.02,1.88,0.00,26.72,27.75,30.82,13.97,47.66,1035.66,2024.57,2661.88,2578.99,2887.96,600.21,599.91,26.24,0000 0000 0000 0000 000000
2018-01-21 00:52:25,0.03,1.88,0.00,26.69,27.75,30.84,13.90,47.59,1035.66,2024.26,2661.08,2578.54,2887.27,599.91,599.66,26.29,0000 0000 0000 0000 000000
2018-01-21 00:57:26,0.02,1.88,0.00,26.72,27.76,30.84,13.83,47.53,1035.66,2024.12,2660.45,2578.02,2886.99,599.68,599.31,26.34,0000 0000 0000 0000 000000
2018-01-21 01:02:28,0.01,1.88,0.00,26.68,27.77,30.82,13.89,47.71,1035.66,2024.06,2659.97,2577.99,2886.50,600.00,599.61,26.39,0000 0000 0000 0000 000000
2018-01-21 01:07:29,0.05,1.88,0.00,26.74,27.77,30.86,13.89,47.64,1035.67,2024.03,2659.02,2577.61,2885.96,600.09,599.66,26.44,0000 0000 0000 0000 000000
2018-01-21 01:12:30,0.04,1.89,0.00,26.75,27.78,30.86,13.93,47.76,1035.67,2024.02,2657.99,2577.00,2885.13,600.06,599.74,26.49,0000 0000 0000 0000 000000
2018-01-21 01:17:31,0.02,1.89,0.00,26.71,27.80,30.88,13.87,47.66,1035.68,2024.02,2657.20,2576.89,2884.99,599.87,599.53,26.54,0000 0000 0000 0000 000000
2018-01-21 01:22:32,0.03,1.89,0.00,26.75,27.80,30.85,13.87,47.74,1035.69,2024.00,2656.86,2576.29,2884.70,599.77,599.44,26.59,0000 0000 0000 0000 000000
2018-01-21 01:27:34,0.03,1.89,0.00,26.74,27.80,30.88,13.91,47.62,1035.71,2024.00,2656.07,2576.01,2884.05,600.22,599.88,26.64,0000 0000 0000 0000 000000
2018-01-21 01:32:35,0.01,1.89,0.00,26.74,27.81,30.90,13.87,47.69,1035.71,2024.00,2655.65,2575.99,2883.98,600.07,599.67,26.69,0000 0000 0000 0000 000000
2018-01-21 01:37:37,0.03,1.89,0.00,26.77,27.82,30.90,13.97,47.59,1035.86,2024.00,2655.01,2575.82,2883.54,600.04,599.72,26.74,0000 0000 0000 0000 000000
2018-01-21 01:42:38,0.04,1.90,0.00,26.73,27.82,30.91,13.95,47.70,1035.87,2024.00,2654.28,2575.13,2883.02,600.25,599.90,26.79,0000 0000 0000 0000 000000
2018-01-21 01:47:39,0.01,1.90,0.00,26.77,27.82,30.91,13.97,47.62,1036.01,2024.00,2653.77,2575.00,2882.78,600.38,600.30,26.84,0000 0000 0000 0000 000000
2018-01-21 01:52:41,0.02,1.90,0.00,26.73,27.84,30.92,14.07,47.63,1035.98,2024.00,2653.03,2574.94,2882.06,600.41,600.23,26.89,0000 0000 0000 0000 000000
2018-01-21 01:57:42,0.04,1.90,0.00,26.77,27.85,30.91,13.97,47.60,1035.93,2023.99,2652.33,2574.29,2881.97,600.13,599.90,26.94,0000 0000 0000 0000 000000
2018-01-21 02:02:43,0.02,1.90,0.00,26.78,27.85,30.93,13.86,47.46,1036.12,2023.99,2651.92,2574.02,2881.51,599.59,599.31,26.99,0000 0000 0000 0000 000000
2018-01-21 02:07:45,0.02,1.90,0.00,26.75,27.85,30.91,13.89,47.55,1036.14,2023.98,2651.10,2573.99,2881.01,600.02,599.85,27.04,0000 0000 0000 0000 000000
2018-01-21 02:12:46,0.01,1.90,0.00,26.80,27.87,30.92,13.90,47.55,1036.15,2023.98,2650.61,2573.90,2880.97,599.72,599.47,27.09,0000 0000 0000 0000 000000
2018-01-21 02:17:47,0.04,1.91,0.00,26.77,27.87,30.93,13.83,47.61,1036.15,2023.98,2650.02,2573.43,2880.50,599.73,599.60,27.14,0000 0000 0000 0000 000000
2018-01-21 02:22:48,0.02,1.91,0.00,26.79,27.87,30.95,13.90,47.67,1036.15,2023.96,2649.43,2573.02,2880.02,599.99,599.72,27.19,0000 0000 0000 0000 000000
2018-01-21 02:27:49,0.02,1.91,0.00,26.78,27.87,30.98,13.98,47.66,1036.14,2023.96,2648.75,2572.99,2879.87,600.14,600.02,27.24,0000 0000 0000 0000 000000
2018-01-21 02:32:51,0.03,1.91,0.00,26.78,27.89,30.98,13.92,47.63,1036.11,2023.97,2648.03,2572.84,2879.24,600.12,599.93,27.29,0000 0000 0000 0000 000000
2018-01-21 02:37:52,0.04,1.91,0.00,26.81,27.90,30.97,13.94,47.67,1036.10,2023.95,2647.52,2572.12,2879.01,599.80,599.50,27.34,0000 0000 0000 0000 000000
2018-01-21 02:42:53,0.00,1.91,0.00,26.79,27.90,30.96,13.92,47.81,1036.14,2023.93,2646.99,2572.01,2878.99,599.77,599.61,27.39,0000 0000 0000 0000 000000
2018-01-21 02:47:55,0.01,1.91,0.00,26.79,27.90,30.98,13.91,47.65,1036.13,2023.79,2646.28,2571.98,2878.52,599.94,599.82,27.44,0000 0000 0000 0000 000000
2018-01-21 02:52:56,0.01,1.91,0.00,26.79,27.91,30.98,13.91,47.67,1036.12,2023.62,2645.92,2571.78,2878.04,599.95,599.76,27.49,0000 0000 0000 0000 000000
2018-01-21 02:57:57,0.01,1.92,0.00,26.85,27.92,30.96,13.95,47.71,1036.14,2023.37,2645.19,2571.15,2877.99,600.19,599.87,27.54,0000 0000 0000 0000 000000
2018-01-21 03:02:59,0.02,1.92,0.00,26.78,27.92,30.99,13.92,47.62,1036.15,2023.19,2644.83,2571.01,2877.51,600.17,599.92,27.59,0000 0000 0000 0000 000000
2018-01-21 03:08:00,0.02,1.92,0.00,26.80,27.92,30.99,13.94,47.63,1036.15,2023.19,2644.07,2571.00,2877.04,599.80,599.63,27.64,0000 0000 0000 0000 000000
2018-01-21 03:13:01,0.02,1.92,0.00,26.77,27.93,30.99,13.93,47.60,1036.15,2023.13,2643.69,2570.76,2876.95,599.97,599.82,27.69,0000 0000 0000 0000 000000
2018-01-21 03:18:03,0.04,1.92,0.00,26.78,27.94,30.98,14.00,47.58,1036.15,2023.04,2643.02,2570.06,2876.20,600.22,600.09,27.74,0000 0000 0000 0000 000000
2018-01-21 03:23:04,0.01,1.92,0.00,26.77,27.95,31.00,13.97,47.55,1036.16,2023.02,2642.61,2570.00,2876.01,600.09,599.90,27.79,0000 0000 0000 0000 000000
2018-01-21 03:28:05,0.01,1.92,0.00,26.72,27.95,30.99,13.87,47.50,1036.15,2023.03,2642.01,2570.00,2875.99,599.92,599.91,27.84,0000 0000 0000 0000 000000
2018-01-21 03:33:06,0.02,1.92,0.00,26.68,27.95,30.99,13.98,47.61,1036.15,2023.02,2641.65,2569.97,2875.79,600.10,600.16,27.89,0000 0000 0000 0000 000000
2018-01-21 03:38:08,0.03,1.92,0.00,26.73,27.95,30.97,13.89,47.49,1036.16,2023.01,2641.03,2569.68,2875.16,600.11,600.00,27.94,0000 0000 0000 0000 000000
2018-01-21 03:43:09,0.01,1.92,0.00,26.71,27.95,30.99,13.89,47.50,1036.16,2023.01,2640.93,2569.28,2875.00,599.92,599.91,27.99,0000 0000 0000 0000 000000
2018-01-21 03:48:10,0.02,1.93,0.00,26.76,27.95,31.03,13.94,47.61,1036.17,2023.00,2640.16,2569.03,2874.99,599.77,599.68,28.04,0000 0000 0000 0000 000000
2018-01-21 03:53:12,0.01,1.93,0.00,26.73,27.95,31.01,13.95,47.56,1036.18,2023.00,2639.98,2569.00,2874.76,600.35,600.34,28.09,0000 0000 0000 0000 000000
2018-01-21 03:58:13,0.02,1.93,0.00,26.80,27.95,31.00,13.86,47.47,1036.20,2023.00,2639.44,2569.00,2874.18,599.99,599.78,28.14,0000 0000 0000 0000 000000
2018-01-21 04:03:15,0.00,1.93,0.00,26.75,27.96,31.01,13.91,47.52,1036.18,2023.00,2639.01,2568.98,2874.00,600.15,600.02,28.19,0000 0000 0000 0000 000000
2018-01-21 04:08:16,0.01,1.93,0.00,26.78,27.97,31.02,13.93,47.68,1036.21,2023.00,2638.81,2568.83,2873.99,599.84,599.70,28.24,0000 0000 0000 0000 000000
2018-01-21 04:13:17,0.03,1.93,0.00,26.80,27.97,31.02,13.89,47.52,1036.31,2023.00,2638.06,2568.37,2873.94,600.03,599.97,28.29,0000 0000 0000 0000 000000
2018-01-21 04:18:18,0.02,1.93,0.00,26.76,27.97,31.02,13.95,47.52,1036.50,2023.00,2638.00,2568.14,2873.61,600.15,600.14,28.34,0000 0000 0000 0000 000000
2018-01-21 04:23:19,0.02,1.93,0.00,26.79,27.97,31.00,13.88,47.58,1036.62,2023.00,2637.57,2568.02,2873.10,599.78,599.88,28.39,0000 0000 0000 0000 000000
2018-01-21 04:28:21,0.00,1.93,0.00,26.78,27.97,30.98,13.86,47.66,1036.63,2023.00,2637.03,2568.00,2873.01,599.83,599.94,28.44,0000 0000 0000 0000 000000
2018-01-21 04:33:22,0.01,1.93,0.00,26.80,27.97,31.02,13.86,47.58,1036.64,2023.00,2636.66,2567.99,2872.97,599.73,599.79,28.49,0000 0000 0000 0000 000000
2018-01-21 04:38:23,0.01,1.93,0.00,26.80,27.97,31.02,13.88,47.51,1036.64,2023.00,2636.03,2567.93,2872.70,599.67,599.70,28.54,0000 0000 0000 0000 000000
2018-01-21 04:43:24,0.04,1.94,0.00,26.82,27.97,31.03,13.91,47.57,1037.00,2023.00,2635.72,2567.38,2872.11,600.08,600.27,28.59,0000 0000 0000 0000 000000
2018-01-21 04:48:25,0.01,1.94,0.00,26.82,27.97,31.06,13.90,47.71,1037.12,2023.00,2634.95,2567.01,2871.99,599.97,600.38,28.64,0000 0000 0000 0000 000000
2018-01-21 04:53:27,0.04,1.94,0.00,26.84,27.97,31.04,13.96,47.79,1037.12,2022.99,2634.10,2566.87,2871.62,600.22,600.57,28.69,0000 0000 0000 0000 000000
2018-01-21 04:58:28,0.04,1.94,0.00,26.82,27.97,31.06,13.97,47.90,1037.13,2022.99,2633.51,2566.31,2871.07,600.41,600.71,28.74,0000 0000 0000 0000 000000
2018-01-21 05:03:29,0.01,1.94,0.00,26.87,27.97,31.04,13.91,47.73,1037.14,2023.00,2632.90,2566.01,2871.00,600.17,600.27,28.79,0000 0000 0000 0000 000000
2018-01-21 05:08:30,0.02,1.94,0.00,26.83,27.98,31.08,13.87,47.77,1037.14,2023.01,2632.09,2566.00,2870.99,599.93,600.28,28.84,0000 0000 0000 0000 000000
2018-01-21 05:13:31,0.01,1.94,0.00,26.90,27.99,31.04,13.96,47.71,1037.18,2023.01,2631.97,2565.96,2870.42,600.11,600.33,28.89,0000 0000 0000 0000 000000
2018-01-21 05:18:32,0.03,1.95,0.00,26.88,28.00,31.06,13.98,47.65,1037.48,2023.00,2631.39,2565.75,2870.02,599.98,600.39,28.94,0000 0000 0000 0000 000000
2018-01-21 05:23:34,0.02,1.95,0.00,26.87,28.00,31.08,13.89,47.54,1037.58,2023.01,2630.98,2565.19,2869.99,600.08,600.55,28.99,0000 0000 0000 0000 000000
2018-01-21 05:28:35,0.03,1.95,0.00,26.85,28.00,31.07,13.99,47.59,1037.61,2023.00,2630.27,2565.01,2869.74,599.98,600.56,29.04,0000 0000 0000 0000 000000
2018-01-21 05:33:37,0.01,1.95,0.00,26.91,28.01,31.12,13.91,47.50,1037.61,2023.00,2629.99,2564.98,2869.05,599.86,600.25,29.09,0000 0000 0000 0000 000000
2018-01-21 05:38:38,0.03,1.95,0.00,26.86,28.02,31.11,13.85,47.47,1037.61,2023.00,2629.37,2564.79,2868.98,599.66,600.17,29.14,0000 0000 0000 0000 000000
2018-01-21 05:43:39,0.04,1.95,0.00,26.91,28.02,31.10,13.90,47.44,1037.61,2023.00,2629.00,2564.18,2868.46,600.13,600.55,29.19,0000 0000 0000 0000 000000
2018-01-21 05:48:41,0.02,1.95,0.00,26.87,28.02,31.09,13.95,47.61,1037.61,2022.99,2628.35,2564.01,2868.01,600.01,600.50,29.24,0000 0000 0000 0000 000000
2018-01-21 05:53:42,0.01,1.96,0.00,26.93,28.02,31.08,13.84,47.50,1037.61,2022.99,2627.83,2563.97,2867.97,599.76,600.14,29.29,0000 0000 0000 0000 000000
2018-01-21 05:58:43,0.04,1.96,0.00,26.88,28.04,31.12,13.93,47.48,1037.62,2022.99,2627.07,2563.65,2867.70,600.19,600.58,29.34,0000 0000 0000 0000 000000
2018-01-21 06:03:44,0.02,1.96,0.00,26.91,28.05,31.13,13.89,47.40,1037.62,2022.99,2626.80,2563.09,2867.11,599.79,600.26,29.39,0000 0000 0000 0000 000000
2018-01-21 06:08:46,0.01,1.96,0.00,26.89,28.05,31.13,13.78,47.32,1037.62,2022.99,2626.04,2563.00,2867.00,599.77,600.24,29.44,0000 0000 0000 0000 000000
2018-01-21 06:13:47,0.02,1.96,0.00,26.88,28.05,31.14,13.97,47.44,1037.66,2022.99,2625.57,2562.98,2866.88,600.10,600.53,29.49,0000 0000 0000 0000 000000
2018-01-21 06:18:48,0.04,1.96,0.00,26.86,28.06,31.13,13.93,47.52,1037.75,2022.98,2625.01,2562.59,2866.13,600.04,600.74,29.54,0000 0000 0000 0000 000000
2018-01-21 06:23:49,0.03,1.96,0.00,26.88,28.07,31.12,13.92,47.54,1037.79,2022.98,2624.28,2562.03,2866.00,600.07,600.54,29.59,0000 0000 0000 0000 000000
2018-01-21 06:28:51,0.01,1.96,0.00,26.85,28.07,31.12,13.91,47.62,1037.88,2022.98,2623.85,2561.99,2865.83,599.87,600.63,29.64,0000 0000 0000 0000 000000
2018-01-21 06:33:52,0.03,1.97,0.00,26.87,28.07,31.12,13.94,47.58,1038.00,2022.98,2623.09,2561.91,2865.12,599.97,600.75,29.69,0000 0000 0000 0000 000000
2018-01-21 06:38:53,0.02,1.97,0.00,26.87,28.07,31.15,13.92,47.55,1038.08,2022.98,2623.00,2561.31,2865.00,600.09,600.89,29.74,0000 0000 0000 0000 000000
2018-01-21 06:43:54,0.03,1.97,0.00,26.87,28.08,31.14,13.96,47.52,1038.10,2022.96,2622.39,2561.02,2864.65,599.92,600.75,29.79,0000 0000 0000 0000 000000
2018-01-21 06:48:56,0.01,1.97,0.00,26.88,28.09,31.11,13.82,47.47,1038.10,2022.95,2621.95,2561.00,2864.04,599.62,600.39,29.84,0000 0000 0000 0000 000000
2018-01-21 06:53:57,0.02,1.97,0.00,26.85,28.10,31.15,13.98,47.58,1038.10,2022.88,2621.15,2560.72,2863.99,600.07,600.71,29.90,0000 0000 0000 0000 000000
2018-01-21 06:58:59,0.04,1.97,0.00,26.87,28.10,31.14,14.01,47.49,1038.11,2022.84,2620.65,2560.06,2863.46,599.95,600.82,29.95,0000 0000 0000 0000 000000
2018-01-21 07:04:00,0.01,1.97,0.00,26.83,28.10,31.14,13.99,47.42,1038.13,2022.83,2620.01,2559.99,2863.01,600.24,601.14,30.00,0000 0000 0000 0000 000000
2018-01-21 07:09:01,0.04,1.98,0.00,26.83,28.10,31.16,13.95,47.64,1038.12,2022.90,2619.25,2559.87,2862.95,599.97,600.85,30.05,0000 0000 0000 0000 000000
2018-01-21 07:14:02,0.02,1.98,0.00,26.84,28.10,31.12,13.90,47.54,1038.12,2022.82,2618.99,2559.27,2862.21,599.92,600.78,30.10,0000 0000 0000 0000 000000
2018-01-21 07:19:04,0.00,1.98,0.00,26.82,28.10,31.16,13.95,47.54,1038.15,2022.65,2618.20,2559.01,2861.99,600.07,600.98,30.15,0000 0000 0000 0000 000000
2018-01-21 07:24:05,0.01,1.98,0.00,26.81,28.10,31.19,13.90,47.63,1038.27,2022.48,2617.84,2559.00,2861.51,599.82,600.72,30.20,0000 0000 0000 0000 000000
2018-01-21 07:29:06,0.01,1.98,0.00,26.80,28.11,31.17,13.94,47.51,1038.24,2022.41,2617.09,2558.86,2861.01,599.93,600.92,30.25,0000 0000 0000 0000 000000
2018-01-21 07:34:07,0.03,1.98,0.00,26.81,28.11,31.13,13.90,47.40,1038.40,2022.20,2616.65,2558.10,2860.74,599.98,601.02,30.30,0000 0000 0000 0000 000000
2018-01-21 07:39:08,0.01,1.98,0.00,26.79,28.11,31.13,13.94,47.43,1038.52,2022.15,2616.02,2558.00,2860.08,599.97,601.07,30.35,0000 0000 0000 0000 000000
2018-01-21 07:44:10,0.01,1.98,0.00,26.82,28.11,31.17,13.93,47.52,1038.56,2022.06,2615.51,2557.95,2859.96,599.79,601.05,30.40,0000 0000 0000 0000 000000
2018-01-21 07:49:11,0.03,1.98,0.00,26.80,28.11,31.15,13.87,47.51,1038.58,2022.04,2615.01,2557.65,2859.41,599.81,601.07,30.45,0000 0000 0000 0000 000000
2018-01-21 07:54:12,0.03,1.99,0.00,26.79,28.10,31.17,13.90,47.48,1038.58,2022.02,2614.53,2557.07,2859.01,599.76,601.02,30.50,0000 0000 0000 0000 000000
2018-01-21 07:59:14,0.01,1.99,0.00,26.80,28.10,31.14,14.01,47.44,1038.59,2022.02,2614.00,2557.00,2858.93,600.11,601.26,30.55,0000 0000 0000 0000 000000
2018-01-21 08:04:15,0.04,1.99,0.00,26.77,28.10,31.15,13.94,47.35,1038.59,2022.00,2613.31,2556.94,2858.23,600.25,601.44,30.60,0000 0000 0000 0000 000000
2018-01-21 08:09:16,0.03,1.99,0.00,26.75,28.10,31.10,13.91,47.27,1038.59,2022.01,2612.82,2556.27,2858.00,599.87,601.12,30.65,0000 0000 0000 0000 000000
2018-01-21 08:14:18,0.02,1.99,0.00,26.75,28.10,31.14,13.99,47.40,1038.59,2022.00,2612.05,2556.01,2857.78,600.17,601.44,30.70,0000 0000 0000 0000 000000
2018-01-21 08:19:19,0.02,1.99,0.00,26.73,28.10,31.15,14.00,47.20,1038.59,2022.00,2611.53,2555.99,2857.06,600.27,601.69,30.75,0000 0000 0000 0000 000000
2018-01-21 08:24:21,0.01,1.99,0.00,26.73,28.10,31.17,14.00,47.34,1038.60,2022.00,2610.98,2555.69,2856.99,600.12,601.47,30.80,0000 0000 0000 0000 000000
2018-01-21 08:29:22,0.05,2.00,0.00,26.74,28.10,31.14,13.98,47.37,1038.61,2022.00,2610.23,2555.06,2856.57,600.14,601.48,30.85,0000 0000 0000 0000 000000
2018-01-21 08:34:23,0.01,2.00,0.00,26.73,28.10,31.10,13.93,47.26,1038.65,2022.01,2609.84,2555.00,2856.02,600.16,601.57,30.90,0000 0000 0000 0000 000000
2018-01-21 08:39:24,0.04,2.00,0.00,26.71,28.09,31.11,13.93,47.33,1038.63,2022.01,2609.04,2554.56,2855.84,599.68,601.05,30.95,0000 0000 0000 0000 000000
2018-01-21 08:44:26,0.04,2.00,0.00,26.76,28.08,31.11,13.90,47.29,1038.74,2022.00,2608.30,2554.03,2855.13,599.83,601.20,31.00,0000 0000 0000 0000 000000
2018-01-21 08:49:27,0.01,2.00,0.00,26.77,28.07,31.13,13.93,47.37,1038.88,2022.01,2607.88,2554.00,2855.00,600.02,601.48,31.05,0000 0000 0000 0000 000000
2018-01-21 08:54:28,0.03,2.00,0.00,26.78,28.07,31.12,13.99,47.25,1039.06,2022.01,2607.09,2553.86,2854.72,600.08,601.59,31.10,0000 0000 0000 0000 000000
2018-01-21 08:59:29,0.05,2.01,0.00,26.76,28.07,31.14,13.95,47.27,1039.08,2022.01,2606.30,2553.12,2854.05,600.27,601.81,31.15,0000 0000 0000 0000 000000
2018-01-21 09:04:31,0.02,2.01,0.00,26.75,28.07,31.14,13.93,47.31,1039.08,2022.02,2605.62,2553.00,2853.95,600.15,601.73,31.20,0000 0000 0000 0000 000000
2018-01-21 09:09:32,0.04,2.01,0.00,26.77,28.07,31.14,14.00,47.34,1039.08,2022.02,2605.01,2552.65,2853.22,600.30,601.71,31.25,0000 0000 0000 0000 000000
2018-01-21 09:14:34,0.03,2.01,0.00,26.73,28.07,31.12,13.92,47.37,1039.08,2022.04,2604.31,2552.07,2853.00,599.79,601.42,31.30,0000 0000 0000 0000 000000
2018-01-21 09:19:35,0.02,2.01,0.00,26.76,28.07,31.12,13.90,47.29,1039.08,2022.02,2603.79,2552.00,2852.66,599.67,601.24,31.35,0000 0000 0000 0000 000000
2018-01-21 09:24:37,0.04,2.02,0.00,26.72,28.07,31.11,13.92,47.37,1039.08,2022.04,2602.97,2551.73,2852.04,599.93,601.56,31.40,0000 0000 0000 0000 000000
2018-01-21 09:29:38,0.05,2.02,0.00,26.76,28.07,31.12,13.92,47.33,1039.08,2022.10,2602.06,2551.05,2851.88,599.90,601.45,31.45,0000 0000 0000 0000 000000
2018-01-21 09:34:39,0.06,2.02,0.00,26.71,28.07,31.13,13.96,47.40,1039.09,2022.21,2601.17,2550.75,2851.16,599.97,601.56,31.50,0000 0000 0000 0000 000000
2018-01-21 09:39:40,0.07,2.02,0.00,26.73,28.06,31.10,13.93,47.45,1039.09,2022.52,2600.23,2550.06,2851.00,600.16,601.84,31.55,0000 0000 0000 0000 000000
2018-01-21 09:44:42,0.05,2.03,0.00,26.71,28.06,31.13,14.03,47.58,1039.14,2022.84,2599.63,2549.99,2850.60,600.12,601.81,31.60,0000 0000 0000 0000 000000
2018-01-21 09:49:43,0.05,2.03,0.00,26.69,28.05,31.09,14.00,47.61,1039.35,2022.90,2598.98,2549.56,2850.01,599.82,601.75,31.65,0000 0000 0000 0000 000000
2018-01-21 09:54:45,0.02,2.03,0.00,26.70,28.05,31.10,13.95,47.56,1039.49,2022.77,2598.20,2549.03,2849.51,599.68,601.54,31.70,0000 0000 0000 0000 000000
2018-01-21 09:59:46,0.01,2.03,0.00,26.68,28.05,31.11,13.98,47.53,1039.54,2022.58,2597.78,2548.96,2849.00,600.04,602.09,31.75,0000 0000 0000 0000 000000
2018-01-21 10:04:47,0.05,2.03,0.00,26.69,28.05,31.09,14.00,47.52,1039.56,2022.46,2596.96,2548.20,2848.33,600.24,602.25,31.80,0000 0000 0000 0000 000000
2018-01-21 10:09:49,0.02,2.04,0.00,26.67,28.05,31.11,13.90,47.44,1039.56,2022.45,2596.07,2547.97,2847.92,599.88,601.89,31.85,0000 0000 0000 0000 000000
2018-01-21 10:14:50,0.07,2.04,0.00,26.66,28.05,31.10,14.00,47.52,1039.57,2022.46,2595.18,2547.34,2847.13,600.08,602.08,31.90,0000 0000 0000 0000 000000
2018-01-21 10:19:51,0.03,2.04,0.00,26.67,28.05,31.08,13.96,47.52,1039.57,2022.26,2594.34,2546.92,2846.58,600.10,602.14,31.95,0000 0000 0000 0000 000000
2018-01-21 10:24:53,0.03,2.04,0.00,26.64,28.05,31.08,13.99,47.48,1039.57,2022.20,2593.59,2546.19,2846.00,600.11,602.16,32.00,0000 0000 0000 0000 000000
2018-01-21 10:29:54,0.04,2.04,0.00,26.65,28.04,31.08,13.99,47.46,1039.57,2022.20,2592.84,2545.98,2845.50,600.43,602.52,32.05,0000 0000 0000 0000 000000
2018-01-21 10:34:55,0.04,2.05,0.00,26.62,28.02,31.07,13.91,47.39,1039.58,2022.21,2591.96,2545.47,2844.99,599.80,601.87,32.10,0000 0000 0000 0000 000000
2018-01-21 10:39:56,0.05,2.05,0.00,26.63,28.02,31.10,13.96,47.38,1039.58,2022.26,2591.07,2545.00,2844.35,599.78,601.87,32.15,0000 0000 0000 0000 000000
2018-01-21 10:44:58,0.05,2.05,0.00,26.65,28.02,31.05,13.99,47.46,1039.58,2022.39,2590.23,2544.63,2844.00,600.12,602.12,32.20,0000 0000 0000 0000 000000
2018-01-21 10:49:59,0.05,2.06,0.00,26.66,28.02,31.06,13.91,47.53,1039.58,2022.49,2589.44,2544.04,2843.51,599.41,601.65,32.25,0000 0000 0000 0000 000000
2018-01-21 10:55:00,0.05,2.06,0.00,26.63,28.02,31.02,13.90,47.41,1039.58,2022.58,2588.51,2543.88,2843.00,599.85,602.01,32.30,0000 0000 0000 0000 000000
2018-01-21 11:00:01,0.07,2.06,0.00,26.63,28.00,31.03,13.95,47.42,1039.58,2022.80,2587.78,2543.13,2842.54,599.90,602.03,32.36,0000 0000 0000 0000 000000
2018-01-21 11:05:03,0.03,2.06,0.00,26.62,28.00,31.03,13.95,47.51,1039.58,2022.88,2586.93,2542.97,2842.01,600.00,602.14,32.41,0000 0000 0000 0000 000000
2018-01-21 11:10:04,0.06,2.07,0.00,26.65,28.00,31.05,13.88,47.44,1039.61,2022.95,2586.03,2542.28,2841.61,600.06,602.17,32.46,0000 0000 0000 0000 000000
2018-01-21 11:15:05,0.03,2.07,0.00,26.61,28.00,31.05,13.95,47.47,1039.60,2022.94,2585.17,2542.00,2841.02,599.92,601.97,32.51,0000 0000 0000 0000 000000
2018-01-21 11:20:06,0.06,2.07,0.00,26.62,28.00,31.05,13.86,47.40,1039.65,2022.96,2584.36,2541.49,2840.54,599.62,601.82,32.56,0000 0000 0000 0000 000000
2018-01-21 11:25:08,0.07,2.07,0.00,26.58,27.99,30.99,13.96,47.63,1039.86,2022.97,2583.31,2540.62,2839.71,599.86,602.11,32.61,0000 0000 0000 0000 000000
2018-01-21 11:30:09,0.04,2.08,0.00,26.57,27.97,31.04,13.96,47.68,1040.04,2022.97,2582.23,2540.02,2839.03,600.08,602.53,32.66,0000 0000 0000 0000 000000
2018-01-21 11:35:10,0.02,2.08,0.00,26.58,27.97,31.03,14.00,47.83,1040.05,2022.98,2581.58,2539.90,2838.82,600.00,602.53,32.71,0000 0000 0000 0000 000000
2018-01-21 11:40:11,0.06,2.08,0.00,26.54,27.97,31.04,13.97,47.72,1040.05,2022.99,2580.78,2539.11,2838.07,600.02,602.60,32.76,0000 0000 0000 0000 000000
2018-01-21 11:45:13,0.01,2.08,0.00,26.57,27.97,31.04,13.98,47.73,1040.06,2022.99,2580.02,2538.99,2837.97,599.67,602.17,32.81,0000 0000 0000 0000 000000
2018-01-21 11:50:14,0.03,2.08,0.00,26.54,27.97,31.02,13.88,47.63,1040.06,2022.99,2579.57,2538.85,2837.23,599.40,602.09,32.86,0000 0000 0000 0000 000000
2018-01-21 11:55:15,0.03,2.09,0.00,26.57,27.95,30.99,13.99,47.70,1040.06,2022.99,2579.03,2538.14,2836.99,599.97,602.50,32.91,0000 0000 0000 0000 000000
2018-01-21 12:00:17,0.03,2.09,0.00,26.51,27.95,30.96,14.03,47.74,1040.07,2022.99,2578.67,2538.00,2836.54,600.03,602.66,32.96,0000 0000 0000 0000 000000
2018-01-21 12:05:18,0.02,2.09,0.00,26.55,27.95,30.99,14.03,47.67,1040.07,2022.99,2577.92,2537.81,2836.02,600.17,602.95,33.01,0000 0000 0000 0000 000000
2018-01-21 12:10:19,0.05,2.09,0.00,26.48,27.95,31.01,13.93,47.66,1040.08,2022.99,2577.09,2537.13,2835.75,599.96,602.44,33.06,0000 0000 0000 0000 000000
2018-01-21 12:15:20,0.02,2.09,0.00,26.50,27.94,30.99,13.97,47.72,1040.07,2022.99,2576.52,2537.00,2835.17,599.86,602.53,33.11,0000 0000 0000 0000 000000
2018-01-21 12:20:22,0.03,2.09,0.00,26.47,27.92,30.99,14.08,47.73,1040.07,2023.01,2575.59,2536.86,2834.99,600.26,602.98,33.16,0000 0000 0000 0000 000000
2018-01-21 12:25:23,0.04,2.10,0.00,26.48,27.92,30.97,13.99,47.73,1040.07,2023.01,2574.83,2536.16,2834.74,600.12,602.82,33.22,0000 0000 0000 0000 000000
2018-01-21 12:30:24,0.03,2.10,0.00,26.45,27.92,30.96,13.97,47.75,1040.08,2023.05,2574.05,2536.00,2834.08,599.93,602.67,33.27,0000 0000 0000 0000 000000
2018-01-21 12:35:25,0.00,2.10,0.00,26.45,27.90,30.96,13.99,47.59,1040.14,2023.05,2573.92,2535.95,2833.87,599.90,602.62,33.32,0000 0000 0000 0000 000000
2018-01-21 12:40:26,0.05,2.10,0.00,26.44,27.90,30.92,14.07,47.52,1040.16,2023.01,2573.22,2535.43,2833.09,600.28,603.14,33.37,0000 0000 0000 0000 000000
2018-01-21 12:45:28,0.01,2.10,0.00,26.45,27.90,30.94,13.99,47.57,1040.10,2023.00,2573.02,2535.06,2832.89,600.08,602.76,33.42,0000 0000 0000 0000 000000
2018-01-21 12:50:29,0.01,2.10,0.00,26.47,27.89,30.96,13.94,47.50,1040.08,2023.00,2572.89,2535.00,2832.09,600.08,602.60,33.47,0000 0000 0000 0000 000000
2018-01-21 12:55:30,0.03,2.11,0.00,26.44,27.87,30.91,13.98,47.50,1040.07,2023.00,2572.10,2534.81,2831.98,599.89,602.75,33.52,0000 0000 0000 0000 000000